ETH750 HAAB-EBBR

Flight info

Callsign ETH750
Flight time 6h 44m
Altitude 38000
Route LABLA2A LABLA T124 ALRAP/N0484F390 DCT KSL/N0484F380 DCT TOMRU/N0485F400 P751 KUNKI T55 TANSA UL613 KOR DCT DIMIS DCT VRANA DCT ALIVO DCT VEKEN DCT UMVEG DCT KPT DCT KUNOD L608 TEDGO DCT SUNEG L608 MISGI Z104 GESLO N852 LNO
Aircraft A359/H-SDE2E3GHIJ3J4J5LM1ORWXY/LB1D1

Departure

Time 2026-05-07 13:10
Airport Addis Ababa Bole International Airport (HAAB)

Arrival

Time 2026-05-07 19:55
Airport Brussels Airport (EBBR)
Time Latitude Longitude Altitude Speed Heading
2026-05-07 12:31 8.97952 38.79372 7627 ft 0 kts 163°
2026-05-07 12:32 8.97950 38.79372 7627 ft 0 kts 163°
2026-05-07 13:02 8.97953 38.79371 7627 ft 3 kts 163°
2026-05-07 13:02 8.97972 38.79364 7632 ft 0 kts 155°
2026-05-07 13:03 8.97987 38.79358 7632 ft 3 kts 160°
2026-05-07 13:03 8.98005 38.79352 7629 ft 3 kts 180°
2026-05-07 13:03 8.98023 38.79353 7629 ft 3 kts 185°
2026-05-07 13:03 8.98041 38.79356 7630 ft 2 kts 209°
2026-05-07 13:04 8.98045 38.79358 7631 ft 0 kts 209°
2026-05-07 13:04 8.98044 38.79358 7631 ft 0 kts 211°
2026-05-07 13:04 8.98041 38.79353 7629 ft 3 kts 227°
2026-05-07 13:04 8.98010 38.79282 7627 ft 15 kts 251°
2026-05-07 13:05 8.97978 38.79177 7627 ft 20 kts 254°
2026-05-07 13:05 8.97953 38.79085 7627 ft 21 kts 256°
2026-05-07 13:05 8.97913 38.78943 7627 ft 21 kts 253°
2026-05-07 13:05 8.97851 38.78766 7627 ft 18 kts 229°
2026-05-07 13:06 8.97791 38.78717 7627 ft 15 kts 242°
2026-05-07 13:06 8.97747 38.78586 7627 ft 17 kts 252°
2026-05-07 13:06 8.97756 38.78509 7627 ft 17 kts 312°
2026-05-07 13:06 8.97806 38.78449 7627 ft 6 kts 258°
2026-05-07 13:07 8.97776 38.78353 7627 ft 25 kts 252°
2026-05-07 13:07 8.97750 38.78251 7627 ft 4 kts 256°
2026-05-07 13:07 8.97742 38.78228 7627 ft 3 kts 245°
2026-05-07 13:07 8.97724 38.78206 7627 ft 4 kts 222°
2026-05-07 13:08 8.97701 38.78194 7627 ft 4 kts 199°
2026-05-07 13:08 8.97567 38.78218 7627 ft 31 kts 165°
2026-05-07 13:08 8.97367 38.78278 7627 ft 29 kts 152°
2026-05-07 13:08 8.97249 38.78409 7626 ft 21 kts 86°
2026-05-07 13:09 8.97259 38.78454 7630 ft 0 kts 75°
2026-05-07 13:09 8.97268 38.78485 7627 ft 24 kts 74°
2026-05-07 13:09 8.97373 38.78841 7627 ft 80 kts 73°
2026-05-07 13:10 8.97584 38.79555 7625 ft 130 kts 73°
2026-05-07 13:10 8.97885 38.80569 7727 ft 162 kts 72°
2026-05-07 13:10 8.98210 38.81592 8545 ft 146 kts 72°
2026-05-07 13:10 8.98485 38.82580 9070 ft 149 kts 75°
2026-05-07 13:11 8.98760 38.83645 9325 ft 164 kts 76°
2026-05-07 13:11 8.99061 38.84818 9575 ft 180 kts 75°
2026-05-07 13:11 8.99198 38.86136 9710 ft 204 kts 96°
2026-05-07 13:11 8.98843 38.87601 9997 ft 222 kts 104°
2026-05-07 13:12 8.97954 38.88907 10443 ft 238 kts 139°
2026-05-07 13:12 8.96339 38.89472 10836 ft 261 kts 177°
2026-05-07 13:12 8.94562 38.88947 11305 ft 278 kts 210°
2026-05-07 13:12 8.93146 38.87595 11825 ft 286 kts 225°
2026-05-07 13:13 8.91784 38.86137 12492 ft 287 kts 231°
2026-05-07 13:13 8.91006 38.84264 13078 ft 288 kts 262°
2026-05-07 13:13 8.91003 38.82267 13545 ft 293 kts 285°
2026-05-07 13:13 8.91880 38.80405 13798 ft 300 kts 315°
2026-05-07 13:14 8.93549 38.79123 14080 ft 308 kts 333°
2026-05-07 13:14 8.95213 38.77649 14299 ft 329 kts 315°
2026-05-07 13:14 8.96752 38.75857 14568 ft 345 kts 313°
2026-05-07 13:14 8.98323 38.73952 14793 ft 360 kts 314°
2026-05-07 13:15 8.99955 38.71960 15032 ft 374 kts 313°
2026-05-07 13:15 9.01635 38.69902 15338 ft 382 kts 313°
2026-05-07 13:15 9.03342 38.67811 15762 ft 387 kts 312°
2026-05-07 13:15 9.05136 38.65789 16272 ft 386 kts 319°
2026-05-07 13:16 9.07230 38.64118 16740 ft 385 kts 330°
2026-05-07 13:16 9.08620 38.63322 17052 ft 384 kts 336°
2026-05-07 13:16 9.09802 38.62724 17303 ft 384 kts 338°
2026-05-07 13:16 9.11011 38.62141 17513 ft 386 kts 338°
2026-05-07 13:17 9.12234 38.61563 17710 ft 389 kts 337°
2026-05-07 13:17 9.13462 38.60987 17955 ft 390 kts 338°
2026-05-07 13:17 9.14697 38.60409 18047 ft 392 kts 337°
2026-05-07 13:17 9.15937 38.59826 18264 ft 394 kts 338°
2026-05-07 13:18 9.17181 38.59240 18496 ft 395 kts 336°
2026-05-07 13:18 9.18431 38.58650 18734 ft 395 kts 338°
2026-05-07 13:18 9.19677 38.58061 18996 ft 396 kts 336°
2026-05-07 13:18 9.20929 38.57467 19241 ft 397 kts 337°
2026-05-07 13:19 9.22180 38.56874 19469 ft 398 kts 337°
2026-05-07 13:19 9.23438 38.56276 19703 ft 399 kts 337°
2026-05-07 13:19 9.24700 38.55677 19872 ft 402 kts 336°
2026-05-07 13:19 9.25958 38.55078 20050 ft 405 kts 337°
2026-05-07 13:20 9.27236 38.54470 20233 ft 407 kts 336°
2026-05-07 13:20 9.28512 38.53864 20410 ft 410 kts 336°
2026-05-07 13:20 9.29814 38.53244 20604 ft 412 kts 336°
2026-05-07 13:20 9.31111 38.52625 20829 ft 412 kts 337°
2026-05-07 13:21 9.32410 38.52006 21061 ft 413 kts 336°
2026-05-07 13:21 9.33714 38.51383 21250 ft 415 kts 337°
2026-05-07 13:21 9.35021 38.50760 21481 ft 416 kts 337°
2026-05-07 13:21 9.36332 38.50135 21681 ft 418 kts 336°
2026-05-07 13:22 9.37652 38.49507 21855 ft 420 kts 336°
2026-05-07 13:22 9.38978 38.48875 22023 ft 422 kts 337°
2026-05-07 13:22 9.40311 38.48240 22208 ft 424 kts 336°
2026-05-07 13:22 9.41649 38.47603 22383 ft 426 kts 336°
2026-05-07 13:23 9.42993 38.46962 22559 ft 428 kts 336°
2026-05-07 13:23 9.44341 38.46319 22747 ft 429 kts 336°
2026-05-07 13:23 9.45696 38.45673 22923 ft 431 kts 336°
2026-05-07 13:23 9.47053 38.45025 23109 ft 432 kts 336°
2026-05-07 13:24 9.48414 38.44375 23284 ft 434 kts 337°
2026-05-07 13:24 9.49784 38.43722 23441 ft 436 kts 336°
2026-05-07 13:24 9.51147 38.43073 23564 ft 437 kts 336°
2026-05-07 13:24 9.53354 38.42019 23829 ft 439 kts 336°
2026-05-07 13:25 9.56129 38.40695 24153 ft 440 kts 336°
2026-05-07 13:25 9.58867 38.39388 24473 ft 441 kts 336°
2026-05-07 13:25 9.61656 38.38056 24813 ft 443 kts 336°
2026-05-07 13:25 9.64452 38.36721 25151 ft 446 kts 335°
2026-05-07 13:26 9.67263 38.35379 25551 ft 448 kts 335°
2026-05-07 13:26 9.70224 38.33965 25959 ft 450 kts 335°
2026-05-07 13:26 9.73801 38.32256 26438 ft 453 kts 335°
2026-05-07 13:26 9.76656 38.30891 26833 ft 456 kts 335°
2026-05-07 13:27 9.79530 38.29518 27239 ft 458 kts 335°
2026-05-07 13:27 9.82431 38.28132 27597 ft 460 kts 335°
2026-05-07 13:27 9.85334 38.26743 27990 ft 463 kts 335°
2026-05-07 13:27 9.88354 38.25299 28365 ft 466 kts 335°
2026-05-07 13:28 9.91264 38.23907 28742 ft 468 kts 335°
2026-05-07 13:28 9.93989 38.22604 29076 ft 470 kts 335°
2026-05-07 13:28 9.96913 38.21205 29431 ft 473 kts 334°
2026-05-07 13:28 9.99897 38.19776 29802 ft 475 kts 334°
2026-05-07 13:29 10.08568 38.15625 30659 ft 482 kts 334°
2026-05-07 13:29 10.20675 38.09824 31772 ft 490 kts 334°
2026-05-07 13:29 10.34467 38.03203 32965 ft 498 kts 333°
2026-05-07 13:29 10.40759 38.00188 33429 ft 502 kts 334°
2026-05-07 13:30 10.47115 37.97138 33849 ft 506 kts 333°
2026-05-07 13:30 10.53466 37.94091 34419 ft 504 kts 332°
2026-05-07 13:30 10.59743 37.90934 34979 ft 500 kts 328°
2026-05-07 13:30 10.65728 37.87384 35589 ft 495 kts 327°
2026-05-07 13:31 10.72044 37.83562 36130 ft 494 kts 327°
2026-05-07 13:31 10.81750 37.77851 36914 ft 492 kts 328°
2026-05-07 13:31 10.93571 37.70968 37834 ft 488 kts 328°
2026-05-07 13:31 11.05352 37.64090 37883 ft 488 kts 328°
2026-05-07 13:32 11.28911 37.50319 37893 ft 488 kts 328°
2026-05-07 13:32 11.52348 37.36593 37881 ft 490 kts 328°
2026-05-07 13:33 11.76377 37.23312 37889 ft 491 kts 330°
2026-05-07 13:33 12.06079 37.07470 37892 ft 491 kts 329°
2026-05-07 13:34 12.42444 36.87980 37860 ft 492 kts 329°
2026-05-07 13:35 12.66671 36.74921 37825 ft 491 kts 328°
2026-05-07 13:35 12.90949 36.61935 37803 ft 493 kts 329°
2026-05-07 13:36 13.01989 36.56178 37806 ft 495 kts 328°
2026-05-07 13:36 13.08093 36.52993 37793 ft 495 kts 329°
2026-05-07 13:37 13.14248 36.49809 37800 ft 496 kts 331°
2026-05-07 13:37 13.20463 36.46733 37788 ft 496 kts 332°
2026-05-07 13:38 13.26647 36.43608 37774 ft 495 kts 331°
2026-05-07 13:38 13.32807 36.40414 37766 ft 496 kts 330°
2026-05-07 13:39 13.38964 36.37192 37766 ft 496 kts 330°
2026-05-07 13:39 13.45083 36.33987 37747 ft 496 kts 330°
2026-05-07 13:40 13.51271 36.30749 37749 ft 496 kts 330°
2026-05-07 13:40 13.57393 36.27540 37741 ft 496 kts 330°
2026-05-07 13:41 13.63657 36.24509 37764 ft 499 kts 338°
2026-05-07 13:41 13.67020 36.23591 37915 ft 502 kts 347°
2026-05-07 13:41 13.70497 36.23255 38134 ft 505 kts 357°
2026-05-07 13:41 13.74019 36.23305 38335 ft 505 kts 359°
2026-05-07 13:42 13.77533 36.23474 38522 ft 505 kts
2026-05-07 13:42 13.81038 36.23700 38661 ft 505 kts
2026-05-07 13:42 13.84504 36.23944 38729 ft 506 kts
2026-05-07 13:43 13.91541 36.24431 38731 ft 506 kts
2026-05-07 13:43 13.98582 36.24884 38730 ft 507 kts
2026-05-07 13:44 14.05630 36.25321 38720 ft 507 kts
2026-05-07 13:44 14.12679 36.25755 38716 ft 507 kts
2026-05-07 13:45 14.19720 36.26190 38722 ft 507 kts
2026-05-07 13:45 14.26775 36.26625 38714 ft 509 kts
2026-05-07 13:46 14.33860 36.27064 38713 ft 510 kts
2026-05-07 13:46 14.40947 36.27503 38708 ft 510 kts
2026-05-07 13:47 14.48032 36.27944 38710 ft 510 kts 360°
2026-05-07 13:47 14.55125 36.28383 38705 ft 511 kts 360°
2026-05-07 13:48 14.62229 36.28824 38705 ft 512 kts 360°
2026-05-07 13:48 14.69289 36.29263 38705 ft 512 kts 360°
2026-05-07 13:49 14.76408 36.29706 38705 ft 512 kts 360°
2026-05-07 13:49 14.83514 36.30148 38705 ft 512 kts 360°
2026-05-07 13:50 14.90637 36.30591 38708 ft 512 kts 360°
2026-05-07 13:50 14.97749 36.31035 38708 ft 512 kts 360°
2026-05-07 13:51 15.04861 36.31478 38714 ft 512 kts 360°
2026-05-07 13:51 15.11955 36.31920 38704 ft 514 kts 360°
2026-05-07 13:52 15.17953 36.32294 38706 ft 515 kts 360°
2026-05-07 13:52 15.25067 36.32739 38710 ft 515 kts 360°
2026-05-07 13:53 15.32220 36.33187 38717 ft 515 kts 360°
2026-05-07 13:53 15.39381 36.33634 38708 ft 516 kts 360°
2026-05-07 13:54 15.46566 36.33907 38708 ft 515 kts 356°
2026-05-07 13:54 15.53727 36.33821 38708 ft 514 kts 355°
2026-05-07 13:55 15.60890 36.33723 38713 ft 515 kts 355°
2026-05-07 13:55 15.68062 36.33683 38705 ft 516 kts 356°
2026-05-07 13:56 15.75249 36.33673 38706 ft 516 kts 356°
2026-05-07 13:56 15.82388 36.33669 38705 ft 516 kts 356°
2026-05-07 13:57 15.89571 36.33662 38713 ft 516 kts 356°
2026-05-07 13:57 15.96786 36.33653 38705 ft 518 kts 356°
2026-05-07 13:58 16.03996 36.33644 38705 ft 518 kts 356°
2026-05-07 13:58 16.11209 36.33636 38705 ft 518 kts 356°
2026-05-07 13:59 16.18433 36.33627 38718 ft 519 kts 356°
2026-05-07 13:59 16.25614 36.33618 38708 ft 520 kts 356°
2026-05-07 14:00 16.32864 36.33609 38711 ft 521 kts 356°
2026-05-07 14:00 16.40118 36.33600 38716 ft 521 kts 356°
2026-05-07 14:01 16.47367 36.33592 38719 ft 521 kts 355°
2026-05-07 14:01 16.54623 36.33583 38716 ft 522 kts 355°
2026-05-07 14:02 16.61885 36.33574 38720 ft 522 kts 355°
2026-05-07 14:02 16.69147 36.33565 38719 ft 522 kts 355°
2026-05-07 14:03 16.76419 36.33556 38725 ft 522 kts 355°
2026-05-07 14:03 16.83677 36.33548 38721 ft 521 kts 355°
2026-05-07 14:04 16.90893 36.33539 38729 ft 521 kts 355°
2026-05-07 14:04 16.98154 36.33529 38731 ft 521 kts 355°
2026-05-07 14:05 17.05420 36.33521 38734 ft 521 kts 355°
2026-05-07 14:05 17.12683 36.33512 38734 ft 521 kts 355°
2026-05-07 14:06 17.19943 36.33502 38739 ft 521 kts 355°
2026-05-07 14:06 17.27194 36.33494 38739 ft 522 kts 355°
2026-05-07 14:07 17.34427 36.33484 38743 ft 523 kts 355°
2026-05-07 14:07 17.41721 36.33474 38743 ft 525 kts 355°
2026-05-07 14:08 17.49030 36.33465 38742 ft 525 kts 355°
2026-05-07 14:08 17.56345 36.33457 38744 ft 525 kts 355°
2026-05-07 14:09 17.63674 36.33448 38746 ft 525 kts 355°
2026-05-07 14:09 17.70988 36.33439 38746 ft 525 kts 355°
2026-05-07 14:10 17.78305 36.33429 38742 ft 525 kts 355°
2026-05-07 14:10 17.85617 36.33420 38759 ft 525 kts 355°
2026-05-07 14:11 17.92911 36.33411 38741 ft 527 kts 355°
2026-05-07 14:11 18.00304 36.33402 38742 ft 528 kts 355°
2026-05-07 14:12 18.07597 36.33393 38745 ft 528 kts 355°
2026-05-07 14:12 18.14947 36.33384 38755 ft 528 kts 355°
2026-05-07 14:13 18.22307 36.33375 38749 ft 530 kts 355°
2026-05-07 14:13 18.29685 36.33365 38756 ft 530 kts 355°
2026-05-07 14:14 18.37069 36.33356 38760 ft 530 kts 355°
2026-05-07 14:14 18.44446 36.33347 38777 ft 531 kts 355°
2026-05-07 14:15 18.51857 36.33336 38768 ft 533 kts 355°
2026-05-07 14:15 18.59300 36.33327 38786 ft 534 kts 355°
2026-05-07 14:16 18.66734 36.33319 38796 ft 534 kts 355°
2026-05-07 14:16 18.74123 36.33309 38798 ft 536 kts 355°
2026-05-07 14:17 18.81596 36.33299 38806 ft 537 kts 355°
2026-05-07 14:17 18.89077 36.33290 38818 ft 537 kts 355°
2026-05-07 14:18 18.96555 36.33281 38816 ft 537 kts 355°
2026-05-07 14:18 19.04057 36.33271 38824 ft 541 kts 355°
2026-05-07 14:19 19.11596 36.33261 38826 ft 542 kts 355°
2026-05-07 14:19 19.19099 36.33253 38822 ft 542 kts 355°
2026-05-07 14:20 19.26657 36.33243 38829 ft 542 kts 354°
2026-05-07 14:20 19.34229 36.33233 38828 ft 544 kts 354°
2026-05-07 14:21 19.41810 36.33222 38824 ft 545 kts 354°
2026-05-07 14:21 19.49394 36.33214 38822 ft 545 kts 355°
2026-05-07 14:22 19.56929 36.33205 38825 ft 546 kts 354°
2026-05-07 14:22 19.64544 36.33194 38820 ft 547 kts 354°
2026-05-07 14:23 19.72165 36.33185 38818 ft 547 kts 354°
2026-05-07 14:23 19.79778 36.33176 38840 ft 547 kts 354°
2026-05-07 14:24 19.87405 36.33166 38815 ft 549 kts 354°
2026-05-07 14:24 19.95049 36.33155 38809 ft 550 kts 354°
2026-05-07 14:25 20.02668 36.33146 38805 ft 550 kts 354°
2026-05-07 14:25 20.10323 36.33136 38805 ft 550 kts 353°
2026-05-07 14:26 20.17992 36.33126 38804 ft 551 kts 353°
2026-05-07 14:26 20.25678 36.33117 38803 ft 551 kts 353°
2026-05-07 14:27 20.40695 36.33098 38804 ft 552 kts 353°
2026-05-07 14:27 20.56023 36.33078 38803 ft 552 kts 353°
2026-05-07 14:28 20.71229 36.32594 38815 ft 540 kts 340°
2026-05-07 14:28 20.78082 36.29883 39040 ft 513 kts 320°
2026-05-07 14:28 20.84113 36.25957 39403 ft 505 kts 317°
2026-05-07 14:28 20.89987 36.21856 39655 ft 504 kts 317°
2026-05-07 14:29 20.95850 36.17739 39804 ft 505 kts 317°
2026-05-07 14:29 21.07660 36.09533 39806 ft 505 kts 318°
2026-05-07 14:30 21.19473 36.01338 39805 ft 505 kts 318°
2026-05-07 14:30 21.31179 35.93197 39804 ft 503 kts 318°
2026-05-07 14:31 21.41857 35.85757 39810 ft 503 kts 318°
2026-05-07 14:31 21.47723 35.81664 39810 ft 503 kts 318°
2026-05-07 14:32 21.53594 35.77564 39816 ft 503 kts 318°
2026-05-07 14:32 21.59467 35.73460 39826 ft 501 kts 318°
2026-05-07 14:33 21.65297 35.69383 39829 ft 499 kts 318°
2026-05-07 14:33 21.71100 35.65317 39829 ft 498 kts 318°
2026-05-07 14:34 21.76876 35.61264 39843 ft 498 kts 318°
2026-05-07 14:34 21.82681 35.57189 39842 ft 498 kts 318°
2026-05-07 14:35 21.88493 35.53107 39878 ft 498 kts 318°
2026-05-07 14:35 21.94284 35.49047 39854 ft 495 kts 318°
2026-05-07 14:36 22.00078 35.45054 39851 ft 494 kts 321°
2026-05-07 14:36 22.05914 35.41137 39863 ft 494 kts 321°
2026-05-07 14:37 22.10732 35.37838 39864 ft 492 kts 317°
2026-05-07 14:37 22.20181 35.31021 39896 ft 492 kts 317°
2026-05-07 14:38 22.24974 35.27634 39865 ft 489 kts 318°
2026-05-07 14:38 22.30685 35.23638 39864 ft 488 kts 319°
2026-05-07 14:39 22.36346 35.19691 39864 ft 486 kts 318°
2026-05-07 14:39 22.42039 35.15747 39873 ft 486 kts 321°
2026-05-07 14:40 22.47775 35.11839 39866 ft 486 kts 320°
2026-05-07 14:40 22.53472 35.07874 39884 ft 485 kts 319°
2026-05-07 14:41 22.59065 35.03899 39858 ft 482 kts 319°
2026-05-07 14:41 22.64668 34.99916 39858 ft 482 kts 318°
2026-05-07 14:42 22.70271 34.95935 39862 ft 482 kts 318°
2026-05-07 14:42 22.75857 34.91986 39859 ft 481 kts 319°
2026-05-07 14:43 22.81491 34.88025 39859 ft 481 kts 319°
2026-05-07 14:43 22.87109 34.84072 39861 ft 480 kts 319°
2026-05-07 14:44 22.92695 34.80136 39856 ft 478 kts 319°
2026-05-07 14:44 22.98244 34.76216 39856 ft 478 kts 319°
2026-05-07 14:45 23.03816 34.72271 39870 ft 478 kts 319°
2026-05-07 14:45 23.09356 34.68349 39856 ft 474 kts 319°
2026-05-07 14:46 23.14876 34.64439 39856 ft 473 kts 319°
2026-05-07 14:46 23.20388 34.60530 39859 ft 472 kts 320°
2026-05-07 14:47 23.25898 34.56627 39858 ft 472 kts 320°
2026-05-07 14:47 23.31338 34.52771 39863 ft 472 kts 320°
2026-05-07 14:48 23.36876 34.48835 39858 ft 472 kts 320°
2026-05-07 14:48 23.42370 34.44924 39864 ft 471 kts 320°
2026-05-07 14:49 23.47850 34.41021 39866 ft 471 kts 320°
2026-05-07 14:49 23.53336 34.37108 39853 ft 471 kts 320°
2026-05-07 14:50 23.58829 34.33186 39871 ft 471 kts 320°
2026-05-07 14:50 23.64325 34.29259 39876 ft 471 kts 320°
2026-05-07 14:51 23.69812 34.25335 39871 ft 471 kts 320°
2026-05-07 14:51 23.75262 34.21433 39890 ft 471 kts 319°
2026-05-07 14:52 23.80705 34.17468 39898 ft 470 kts 320°
2026-05-07 14:52 23.86125 34.13541 39868 ft 465 kts 320°
2026-05-07 14:53 23.91548 34.09673 39872 ft 464 kts 320°
2026-05-07 14:53 23.96964 34.05821 39875 ft 464 kts 320°
2026-05-07 14:54 24.02383 34.01957 39873 ft 464 kts 320°
2026-05-07 14:54 24.07762 33.98112 39881 ft 464 kts 320°
2026-05-07 14:55 24.13166 33.94240 39915 ft 464 kts 320°
2026-05-07 14:55 24.18513 33.90417 39873 ft 454 kts 320°
2026-05-07 14:56 24.23777 33.86638 39889 ft 451 kts 320°
2026-05-07 14:56 24.29023 33.82861 39888 ft 451 kts 320°
2026-05-07 14:57 24.34278 33.79084 39890 ft 452 kts 320°
2026-05-07 14:57 24.39524 33.75307 39891 ft 451 kts 320°
2026-05-07 14:58 24.44785 33.71533 39892 ft 451 kts 320°
2026-05-07 14:58 24.50007 33.67786 39901 ft 450 kts 320°
2026-05-07 14:59 24.55231 33.64016 39889 ft 449 kts 320°
2026-05-07 14:59 24.60443 33.60249 39891 ft 448 kts 320°
2026-05-07 15:00 24.65674 33.56498 39894 ft 449 kts 322°
2026-05-07 15:00 24.70929 33.52795 39895 ft 448 kts 322°
2026-05-07 15:01 24.76166 33.49058 39898 ft 448 kts 321°
2026-05-07 15:01 24.81387 33.45285 39902 ft 450 kts 321°
2026-05-07 15:02 24.86633 33.41478 39901 ft 452 kts 321°
2026-05-07 15:02 24.91885 33.37666 39900 ft 452 kts 321°
2026-05-07 15:03 24.97138 33.33849 39911 ft 452 kts 321°
2026-05-07 15:03 25.02391 33.30029 39911 ft 452 kts 321°
2026-05-07 15:04 25.07606 33.26234 39909 ft 452 kts 321°
2026-05-07 15:04 25.12854 33.22409 39915 ft 454 kts 322°
2026-05-07 15:05 25.18140 33.18552 39911 ft 455 kts 322°
2026-05-07 15:05 25.23421 33.14697 39926 ft 455 kts 322°
2026-05-07 15:06 25.28685 33.10854 39919 ft 452 kts 322°
2026-05-07 15:06 25.33924 33.07021 39915 ft 451 kts 322°
2026-05-07 15:07 25.39160 33.03185 39923 ft 451 kts 322°
2026-05-07 15:07 25.44404 32.99340 39915 ft 452 kts 322°
2026-05-07 15:08 25.49654 32.95486 39921 ft 453 kts 322°
2026-05-07 15:08 25.54909 32.91626 39930 ft 453 kts 322°
2026-05-07 15:09 25.60164 32.87762 39924 ft 453 kts 322°
2026-05-07 15:09 25.65386 32.83920 39925 ft 448 kts 322°
2026-05-07 15:10 25.70542 32.80120 39912 ft 447 kts 322°
2026-05-07 15:10 25.75432 32.75913 39919 ft 443 kts 312°
2026-05-07 15:11 25.79550 32.70820 39914 ft 444 kts 308°
2026-05-07 15:11 25.83515 32.65545 39914 ft 444 kts 307°
2026-05-07 15:12 25.87446 32.60254 39917 ft 444 kts 308°
2026-05-07 15:12 25.91344 32.55028 39913 ft 440 kts 308°
2026-05-07 15:13 25.95259 32.49794 39917 ft 440 kts 308°
2026-05-07 15:13 25.99171 32.44562 39916 ft 440 kts 308°
2026-05-07 15:14 26.03083 32.39326 39914 ft 440 kts 308°
2026-05-07 15:14 26.06971 32.34113 39914 ft 440 kts 308°
2026-05-07 15:15 26.10853 32.28905 39912 ft 435 kts 308°
2026-05-07 15:15 26.14715 32.23714 39919 ft 435 kts 308°
2026-05-07 15:16 26.18586 32.18506 39912 ft 437 kts 308°
2026-05-07 15:16 26.22464 32.13283 39909 ft 437 kts 308°
2026-05-07 15:17 26.26338 32.08060 39910 ft 437 kts 308°
2026-05-07 15:17 26.30205 32.02841 39902 ft 433 kts 308°
2026-05-07 15:18 26.34032 31.97669 39908 ft 432 kts 308°
2026-05-07 15:18 26.37825 31.92534 39906 ft 432 kts 308°
2026-05-07 15:19 26.41642 31.87363 39912 ft 431 kts 308°
2026-05-07 15:19 26.45460 31.82187 39912 ft 431 kts 308°
2026-05-07 15:20 26.49273 31.77010 39913 ft 430 kts 308°
2026-05-07 15:20 26.53070 31.71849 39933 ft 429 kts 309°
2026-05-07 15:21 26.56846 31.66711 39931 ft 431 kts 308°
2026-05-07 15:21 26.60651 31.61527 39948 ft 431 kts 308°
2026-05-07 15:22 26.64454 31.56340 39964 ft 431 kts 308°
2026-05-07 15:22 26.67611 31.52030 39991 ft 430 kts 309°
2026-05-07 15:23 26.71396 31.46856 39997 ft 429 kts 309°
2026-05-07 15:23 26.75174 31.41687 39996 ft 429 kts 309°
2026-05-07 15:24 26.78948 31.36515 40015 ft 429 kts 309°
2026-05-07 15:24 26.82695 31.31377 40020 ft 429 kts 309°
2026-05-07 15:25 26.86472 31.26190 40053 ft 429 kts 309°
2026-05-07 15:25 26.90240 31.21009 40057 ft 429 kts 309°
2026-05-07 15:26 26.94008 31.15823 40072 ft 429 kts 309°
2026-05-07 15:26 26.97780 31.10626 40076 ft 429 kts 309°
2026-05-07 15:27 27.01540 31.05485 40070 ft 429 kts 311°
2026-05-07 15:27 27.05978 31.01020 40072 ft 429 kts 321°
2026-05-07 15:28 27.10811 30.97071 40075 ft 430 kts 323°
2026-05-07 15:28 27.15699 30.93212 40079 ft 431 kts 324°
2026-05-07 15:29 27.20625 30.89318 40079 ft 431 kts 323°
2026-05-07 15:29 27.25520 30.85425 40092 ft 431 kts 324°
2026-05-07 15:30 27.30421 30.81512 40084 ft 432 kts 324°
2026-05-07 15:30 27.35287 30.77621 40076 ft 432 kts 324°
2026-05-07 15:31 27.40182 30.73705 40073 ft 432 kts 324°
2026-05-07 15:31 27.45084 30.69778 40074 ft 432 kts 324°
2026-05-07 15:32 27.49982 30.65850 40074 ft 432 kts 324°
2026-05-07 15:32 27.54873 30.61923 40069 ft 432 kts 324°
2026-05-07 15:33 27.59768 30.57989 40077 ft 432 kts 324°
2026-05-07 15:33 27.64662 30.54051 40068 ft 432 kts 324°
2026-05-07 15:34 27.69520 30.50138 40064 ft 432 kts 324°
2026-05-07 15:34 27.74412 30.46194 40063 ft 432 kts 324°
2026-05-07 15:35 27.79303 30.42245 40069 ft 432 kts 324°
2026-05-07 15:35 27.84187 30.38297 40055 ft 432 kts 324°
2026-05-07 15:36 27.89076 30.34342 40067 ft 432 kts 324°
2026-05-07 15:36 27.93959 30.30385 40062 ft 431 kts 324°
2026-05-07 15:37 27.98839 30.26427 40069 ft 431 kts 324°
2026-05-07 15:37 28.03719 30.22466 40066 ft 431 kts 324°
2026-05-07 15:38 28.08600 30.18498 40065 ft 431 kts 324°
2026-05-07 15:38 28.13475 30.14531 40059 ft 431 kts 324°
2026-05-07 15:39 28.18349 30.10560 40052 ft 431 kts 324°
2026-05-07 15:39 28.23223 30.06585 40075 ft 431 kts 324°
2026-05-07 15:40 28.28057 30.02638 40064 ft 430 kts 324°
2026-05-07 15:40 28.32911 29.98670 40057 ft 430 kts 324°
2026-05-07 15:41 28.37764 29.94698 40064 ft 430 kts 324°
2026-05-07 15:41 28.42611 29.90727 40062 ft 430 kts 324°
2026-05-07 15:42 28.47464 29.86746 40056 ft 430 kts 324°
2026-05-07 15:42 28.52309 29.82767 40064 ft 430 kts 324°
2026-05-07 15:43 28.57131 29.78800 40059 ft 425 kts 324°
2026-05-07 15:43 28.61918 29.74859 40059 ft 423 kts 324°
2026-05-07 15:44 28.66690 29.70928 40043 ft 423 kts 324°
2026-05-07 15:44 28.71457 29.66995 40056 ft 423 kts 324°
2026-05-07 15:45 28.76227 29.63055 40048 ft 423 kts 324°
2026-05-07 15:45 28.80993 29.59114 40054 ft 423 kts 324°
2026-05-07 15:46 28.88112 29.53219 40053 ft 422 kts 324°
2026-05-07 15:47 28.92842 29.49295 40050 ft 419 kts 324°
2026-05-07 15:47 28.97551 29.45385 40054 ft 418 kts 324°
2026-05-07 15:48 29.02258 29.41473 40054 ft 418 kts 324°
2026-05-07 15:48 29.06955 29.37564 40051 ft 418 kts 324°
2026-05-07 15:49 29.11688 29.33706 40059 ft 418 kts 328°
2026-05-07 15:49 29.16816 29.30589 40074 ft 417 kts 333°
2026-05-07 15:50 29.22036 29.27692 40051 ft 416 kts 334°
2026-05-07 15:50 29.27251 29.24842 40042 ft 415 kts 334°
2026-05-07 15:51 29.32418 29.22006 40050 ft 412 kts 334°
2026-05-07 15:51 29.37574 29.19164 40050 ft 411 kts 334°
2026-05-07 15:52 29.42737 29.16310 40054 ft 411 kts 334°
2026-05-07 15:52 29.47893 29.13456 40055 ft 411 kts 333°
2026-05-07 15:53 29.53032 29.10610 40061 ft 409 kts 333°
2026-05-07 15:53 29.58155 29.07769 40062 ft 408 kts 333°
2026-05-07 15:54 29.63272 29.04928 40065 ft 408 kts 333°
2026-05-07 15:54 29.68396 29.02081 40067 ft 408 kts 333°
2026-05-07 15:55 29.73508 28.99237 40067 ft 408 kts 333°
2026-05-07 15:55 29.78620 28.96389 40071 ft 407 kts 333°
2026-05-07 15:56 29.83709 28.93551 40065 ft 405 kts 333°
2026-05-07 15:56 29.88772 28.90725 40076 ft 404 kts 333°
2026-05-07 15:57 29.93837 28.87893 40074 ft 404 kts 333°
2026-05-07 15:57 29.98903 28.85058 40078 ft 404 kts 333°
2026-05-07 15:58 30.03959 28.82226 40080 ft 404 kts 333°
2026-05-07 15:58 30.08989 28.79405 40080 ft 404 kts 333°
2026-05-07 15:59 30.14045 28.76566 40086 ft 404 kts 333°
2026-05-07 15:59 30.19105 28.73722 40087 ft 404 kts 333°
2026-05-07 16:00 30.24163 28.70876 40089 ft 404 kts 333°
2026-05-07 16:00 30.29184 28.68047 40089 ft 403 kts 333°
2026-05-07 16:01 30.34229 28.65202 40102 ft 403 kts 333°
2026-05-07 16:01 30.39277 28.62351 40099 ft 403 kts 333°
2026-05-07 16:02 30.44310 28.59506 40106 ft 403 kts 333°
2026-05-07 16:02 30.49352 28.56652 40105 ft 403 kts 333°
2026-05-07 16:03 30.54381 28.53802 40109 ft 403 kts 333°
2026-05-07 16:03 30.59418 28.50945 40119 ft 403 kts 333°
2026-05-07 16:04 30.64450 28.48087 40121 ft 402 kts 333°
2026-05-07 16:04 30.69472 28.45232 40125 ft 401 kts 333°
2026-05-07 16:05 30.73640 28.42859 40126 ft 401 kts 333°
2026-05-07 16:05 30.78657 28.40000 40128 ft 401 kts 333°
2026-05-07 16:06 30.83677 28.37137 40130 ft 401 kts 333°
2026-05-07 16:06 30.88684 28.34277 40130 ft 401 kts 333°
2026-05-07 16:07 30.93656 28.31433 40131 ft 399 kts 333°
2026-05-07 16:07 30.98674 28.28561 40138 ft 399 kts 333°
2026-05-07 16:08 31.03438 28.25830 40143 ft 399 kts 333°
2026-05-07 16:08 31.08061 28.23177 40143 ft 399 kts 333°
2026-05-07 16:09 31.13006 28.20336 40143 ft 399 kts 333°
2026-05-07 16:09 31.17984 28.17473 40146 ft 399 kts 333°
2026-05-07 16:10 31.22951 28.14613 40143 ft 397 kts 333°
2026-05-07 16:10 31.27911 28.11754 40148 ft 397 kts 333°
2026-05-07 16:11 31.32872 28.08890 40144 ft 397 kts 333°
2026-05-07 16:11 31.37824 28.06028 40146 ft 397 kts 332°
2026-05-07 16:12 31.42761 28.03173 40150 ft 395 kts 332°
2026-05-07 16:12 31.47694 28.00316 40158 ft 395 kts 332°
2026-05-07 16:13 31.52760 27.97796 40148 ft 395 kts 336°
2026-05-07 16:13 31.57879 27.95448 40148 ft 395 kts 336°
2026-05-07 16:14 31.63007 27.93126 40148 ft 395 kts 336°
2026-05-07 16:14 31.68145 27.90796 40149 ft 395 kts 336°
2026-05-07 16:15 31.73239 27.88478 40148 ft 395 kts 336°
2026-05-07 16:15 31.78366 27.86140 40150 ft 394 kts 336°
2026-05-07 16:16 31.83477 27.83805 40148 ft 393 kts 336°
2026-05-07 16:16 31.88586 27.81469 40151 ft 393 kts 336°
2026-05-07 16:17 31.93683 27.79134 40149 ft 393 kts 336°
2026-05-07 16:17 31.98790 27.76787 40148 ft 393 kts 336°
2026-05-07 16:18 32.03897 27.74437 40152 ft 393 kts 336°
2026-05-07 16:18 32.08953 27.72108 40148 ft 392 kts 336°
2026-05-07 16:19 32.14047 27.69760 40152 ft 392 kts 336°
2026-05-07 16:19 32.19135 27.67411 40151 ft 392 kts 336°
2026-05-07 16:20 32.24227 27.65058 40154 ft 392 kts 336°
2026-05-07 16:20 32.29277 27.62721 40154 ft 392 kts 336°
2026-05-07 16:21 32.34353 27.60376 40153 ft 392 kts 336°
2026-05-07 16:21 32.39442 27.58010 40154 ft 391 kts 336°
2026-05-07 16:22 32.44510 27.55648 40154 ft 391 kts 336°
2026-05-07 16:22 32.49587 27.53282 40153 ft 391 kts 336°
2026-05-07 16:23 32.54626 27.50933 40156 ft 391 kts 336°
2026-05-07 16:23 32.59698 27.48565 40155 ft 391 kts 335°
2026-05-07 16:24 32.64761 27.46199 40155 ft 391 kts 335°
2026-05-07 16:24 32.69830 27.43827 40158 ft 391 kts 335°
2026-05-07 16:25 32.74912 27.41449 40156 ft 391 kts 335°
2026-05-07 16:25 32.79941 27.39078 40158 ft 391 kts 335°
2026-05-07 16:26 32.84983 27.36698 40157 ft 391 kts 335°
2026-05-07 16:26 32.90045 27.34306 40152 ft 391 kts 335°
2026-05-07 16:27 32.95107 27.31915 40156 ft 391 kts 335°
2026-05-07 16:27 33.00168 27.29520 40157 ft 391 kts 335°
2026-05-07 16:28 33.05232 27.27122 40156 ft 391 kts 335°
2026-05-07 16:28 33.10289 27.24724 40161 ft 391 kts 335°
2026-05-07 16:29 33.15348 27.22322 40153 ft 391 kts 335°
2026-05-07 16:29 33.20394 27.19922 40153 ft 391 kts 335°
2026-05-07 16:30 33.25458 27.17512 40156 ft 390 kts 335°
2026-05-07 16:30 33.30517 27.15100 40154 ft 392 kts 335°
2026-05-07 16:31 33.35562 27.12692 40154 ft 393 kts 335°
2026-05-07 16:31 33.40643 27.10265 40151 ft 393 kts 335°
2026-05-07 16:32 33.45720 27.07837 40152 ft 392 kts 335°
2026-05-07 16:32 33.50792 27.05406 40153 ft 392 kts 335°
2026-05-07 16:33 33.55865 27.02973 40151 ft 392 kts 335°
2026-05-07 16:33 33.60940 27.00536 40154 ft 392 kts 335°
2026-05-07 16:34 33.65978 26.98113 40153 ft 392 kts 335°
2026-05-07 16:34 33.71032 26.95681 40153 ft 391 kts 335°
2026-05-07 16:35 33.76078 26.93248 40150 ft 390 kts 335°
2026-05-07 16:35 33.81127 26.90810 40154 ft 390 kts 335°
2026-05-07 16:36 33.86167 26.88374 40152 ft 390 kts 335°
2026-05-07 16:36 33.91208 26.85935 40159 ft 391 kts 335°
2026-05-07 16:37 33.96261 26.83486 40146 ft 391 kts 335°
2026-05-07 16:37 34.01077 26.80511 40147 ft 388 kts 324°
2026-05-07 16:38 34.05420 26.76705 40147 ft 388 kts 322°
2026-05-07 16:38 34.09698 26.72733 40148 ft 388 kts 322°
2026-05-07 16:39 34.13962 26.68737 40149 ft 388 kts 322°
2026-05-07 16:39 34.18235 26.64746 40149 ft 388 kts 322°
2026-05-07 16:40 34.22508 26.60763 40149 ft 386 kts 322°
2026-05-07 16:40 34.26759 26.56797 40148 ft 386 kts 322°
2026-05-07 16:41 34.30990 26.52846 40142 ft 387 kts 321°
2026-05-07 16:41 34.35256 26.48856 40145 ft 387 kts 321°
2026-05-07 16:42 34.39520 26.44863 40144 ft 387 kts 321°
2026-05-07 16:42 34.43779 26.40869 40143 ft 387 kts 321°
2026-05-07 16:43 34.48014 26.36892 40144 ft 387 kts 321°
2026-05-07 16:43 34.52261 26.32901 40144 ft 386 kts 321°
2026-05-07 16:44 34.56498 26.28910 40143 ft 385 kts 321°
2026-05-07 16:44 34.60738 26.24913 40130 ft 385 kts 321°
2026-05-07 16:45 34.64986 26.20901 40146 ft 388 kts 321°
2026-05-07 16:45 34.69259 26.16862 40146 ft 389 kts 321°
2026-05-07 16:46 34.73530 26.12820 40146 ft 389 kts 321°
2026-05-07 16:46 34.77776 26.08796 40144 ft 389 kts 321°
2026-05-07 16:47 34.82034 26.04755 40143 ft 387 kts 321°
2026-05-07 16:47 34.86275 26.00724 40142 ft 386 kts 321°
2026-05-07 16:48 34.89794 25.97375 40142 ft 386 kts 321°
2026-05-07 16:48 34.94033 25.93336 40134 ft 387 kts 321°
2026-05-07 16:49 34.98299 25.89266 40140 ft 389 kts 321°
2026-05-07 16:49 35.02566 25.85189 40135 ft 389 kts 321°
2026-05-07 16:50 35.06830 25.81117 40143 ft 389 kts 321°
2026-05-07 16:50 35.11087 25.77039 40143 ft 388 kts 320°
2026-05-07 16:51 35.15354 25.72921 40137 ft 388 kts 320°
2026-05-07 16:51 35.19554 25.68859 40135 ft 387 kts 320°
2026-05-07 16:52 35.23794 25.64770 40138 ft 388 kts 320°
2026-05-07 16:52 35.28034 25.60688 40139 ft 389 kts 321°
2026-05-07 16:53 35.32294 25.56584 40133 ft 390 kts 320°
2026-05-07 16:53 35.36555 25.52469 40134 ft 390 kts 320°
2026-05-07 16:54 35.40815 25.48349 40127 ft 389 kts 320°
2026-05-07 16:54 35.45038 25.44260 40130 ft 389 kts 320°
2026-05-07 16:55 35.49279 25.40148 40130 ft 389 kts 320°
2026-05-07 16:55 35.53530 25.36020 40130 ft 389 kts 320°
2026-05-07 16:56 35.57776 25.31892 40124 ft 389 kts 320°
2026-05-07 16:56 35.64169 25.25665 40129 ft 391 kts 320°
2026-05-07 16:57 35.68439 25.21499 40127 ft 391 kts 320°
2026-05-07 16:57 35.72707 25.17330 40130 ft 391 kts 320°
2026-05-07 16:58 35.76945 25.13184 40130 ft 391 kts 320°
2026-05-07 16:58 35.81204 25.09011 40131 ft 391 kts 320°
2026-05-07 16:59 35.85461 25.04834 40132 ft 391 kts 320°
2026-05-07 16:59 35.89721 25.00648 40130 ft 391 kts 320°
2026-05-07 17:00 35.93996 24.96442 40135 ft 393 kts 320°
2026-05-07 17:00 35.98271 24.92231 40141 ft 393 kts 320°
2026-05-07 17:01 36.02540 24.88018 40134 ft 393 kts 320°
2026-05-07 17:01 36.06808 24.83802 40135 ft 393 kts 320°
2026-05-07 17:02 36.11054 24.79601 40138 ft 393 kts 320°
2026-05-07 17:02 36.15317 24.75370 40138 ft 393 kts 320°
2026-05-07 17:03 36.19582 24.71133 40138 ft 393 kts 320°
2026-05-07 17:03 36.23845 24.66893 40135 ft 393 kts 320°
2026-05-07 17:04 36.28111 24.62645 40144 ft 393 kts 319°
2026-05-07 17:04 36.32374 24.58394 40145 ft 393 kts 319°
2026-05-07 17:05 36.36630 24.54143 40141 ft 393 kts 319°
2026-05-07 17:05 36.40890 24.49883 40136 ft 393 kts 319°
2026-05-07 17:06 36.45143 24.45623 40138 ft 393 kts 319°
2026-05-07 17:06 36.49397 24.41363 40139 ft 393 kts 319°
2026-05-07 17:07 36.53583 24.37157 40149 ft 393 kts 319°
2026-05-07 17:07 36.57895 24.32814 40144 ft 396 kts 319°
2026-05-07 17:08 36.62186 24.28489 40149 ft 396 kts 319°
2026-05-07 17:08 36.66467 24.24169 40146 ft 396 kts 319°
2026-05-07 17:09 36.70752 24.19839 40124 ft 396 kts 319°
2026-05-07 17:09 36.75034 24.15506 40141 ft 396 kts 319°
2026-05-07 17:10 36.79319 24.11163 40137 ft 396 kts 319°
2026-05-07 17:10 36.83596 24.06823 40131 ft 396 kts 319°
2026-05-07 17:11 36.87876 24.02471 40133 ft 398 kts 318°
2026-05-07 17:11 36.92180 23.98090 40127 ft 398 kts 318°
2026-05-07 17:12 36.96481 23.93711 40127 ft 398 kts 318°
2026-05-07 17:12 37.00752 23.89356 40125 ft 398 kts 318°
2026-05-07 17:13 37.05049 23.84967 40124 ft 398 kts 318°
2026-05-07 17:13 37.09332 23.80563 40122 ft 398 kts 318°
2026-05-07 17:14 37.13614 23.76161 40124 ft 397 kts 318°
2026-05-07 17:14 37.21419 23.68172 40116 ft 400 kts 318°
2026-05-07 17:15 37.30054 23.59278 40109 ft 400 kts 318°
2026-05-07 17:15 37.38668 23.50396 40114 ft 400 kts 318°
2026-05-07 17:16 37.47380 23.41371 40108 ft 411 kts 317°
2026-05-07 17:16 37.56273 23.32129 40108 ft 419 kts 317°
2026-05-07 17:17 37.65275 23.22743 40108 ft 420 kts 317°
2026-05-07 17:17 37.74247 23.13352 40109 ft 417 kts 317°
2026-05-07 17:18 37.83209 23.03957 40110 ft 420 kts 317°
2026-05-07 17:18 37.90601 22.96176 40109 ft 420 kts 317°
2026-05-07 17:19 37.92849 22.93805 40265 ft 422 kts 319°
2026-05-07 17:19 37.95122 22.91412 39920 ft 427 kts 317°
2026-05-07 17:19 37.97397 22.89023 40082 ft 422 kts 317°
2026-05-07 17:19 37.99660 22.86647 40095 ft 420 kts 317°
2026-05-07 17:20 38.04157 22.81919 40097 ft 419 kts 317°
2026-05-07 17:20 38.08616 22.77216 40091 ft 419 kts 316°
2026-05-07 17:21 38.13110 22.72469 40093 ft 421 kts 316°
2026-05-07 17:21 38.17609 22.67708 40097 ft 421 kts 316°
2026-05-07 17:22 38.22109 22.62940 40098 ft 421 kts 316°
2026-05-07 17:22 38.26612 22.58163 40102 ft 420 kts 316°
2026-05-07 17:23 38.31068 22.53425 40104 ft 419 kts 316°
2026-05-07 17:23 38.35558 22.48641 40104 ft 419 kts 316°
2026-05-07 17:24 38.40030 22.43871 40104 ft 419 kts 316°
2026-05-07 17:24 38.44512 22.39081 40097 ft 421 kts 316°
2026-05-07 17:25 38.49001 22.34278 40112 ft 421 kts 316°
2026-05-07 17:25 38.53479 22.29476 40117 ft 420 kts 316°
2026-05-07 17:26 38.57958 22.24665 40114 ft 420 kts 316°
2026-05-07 17:26 38.62435 22.19847 40121 ft 421 kts 316°
2026-05-07 17:27 38.66887 22.15053 40114 ft 419 kts 316°
2026-05-07 17:27 38.71358 22.10227 40114 ft 420 kts 316°
2026-05-07 17:28 38.75109 22.06175 40118 ft 421 kts 316°
2026-05-07 17:28 38.79590 22.01324 40121 ft 422 kts 315°
2026-05-07 17:29 38.84078 21.96455 40118 ft 423 kts 315°
2026-05-07 17:29 38.88565 21.91579 40120 ft 423 kts 315°
2026-05-07 17:30 38.93033 21.86715 40111 ft 423 kts 315°
2026-05-07 17:30 38.97527 21.81816 40118 ft 423 kts 315°
2026-05-07 17:31 39.02016 21.76913 40114 ft 423 kts 315°
2026-05-07 17:31 39.06500 21.72007 40106 ft 423 kts 315°
2026-05-07 17:32 39.10993 21.67085 40128 ft 424 kts 315°
2026-05-07 17:32 39.15477 21.62163 40127 ft 423 kts 315°
2026-05-07 17:33 39.19931 21.57262 40108 ft 423 kts 315°
2026-05-07 17:33 39.24436 21.52301 40107 ft 422 kts 315°
2026-05-07 17:34 39.28901 21.47377 40124 ft 422 kts 315°
2026-05-07 17:34 39.33336 21.42474 40118 ft 422 kts 315°
2026-05-07 17:35 39.37778 21.37555 40115 ft 420 kts 315°
2026-05-07 17:35 39.42210 21.32636 40114 ft 420 kts 315°
2026-05-07 17:36 39.46640 21.27710 40113 ft 420 kts 315°
2026-05-07 17:36 39.51101 21.22754 40111 ft 420 kts 315°
2026-05-07 17:37 39.55512 21.17841 40119 ft 420 kts 315°
2026-05-07 17:37 39.59938 21.12893 40115 ft 420 kts 314°
2026-05-07 17:38 39.64343 21.07956 40113 ft 418 kts 314°
2026-05-07 17:38 39.68751 21.03008 40096 ft 419 kts 314°
2026-05-07 17:39 39.73161 20.98059 40106 ft 418 kts 314°
2026-05-07 17:39 39.77566 20.93108 40110 ft 419 kts 314°
2026-05-07 17:40 39.81947 20.88172 40105 ft 419 kts 314°
2026-05-07 17:40 39.86346 20.83206 40109 ft 419 kts 314°
2026-05-07 17:41 39.90749 20.78228 40100 ft 420 kts 313°
2026-05-07 17:41 39.95175 20.73214 40096 ft 422 kts 313°
2026-05-07 17:42 39.99600 20.68194 40108 ft 422 kts 313°
2026-05-07 17:42 40.04027 20.63160 40102 ft 422 kts 313°
2026-05-07 17:43 40.08691 20.58452 40100 ft 428 kts 321°
2026-05-07 17:43 40.13775 20.54357 40101 ft 430 kts 322°
2026-05-07 17:44 40.18928 20.50367 40099 ft 430 kts 322°
2026-05-07 17:44 40.24079 20.46379 40096 ft 430 kts 322°
2026-05-07 17:45 40.29219 20.42372 40093 ft 430 kts 321°
2026-05-07 17:45 40.34361 20.38348 40093 ft 431 kts 321°
2026-05-07 17:46 40.39502 20.34318 40093 ft 429 kts 321°
2026-05-07 17:46 40.44620 20.30300 40086 ft 428 kts 321°
2026-05-07 17:47 40.49697 20.26304 40093 ft 428 kts 321°
2026-05-07 17:47 40.54804 20.22277 40084 ft 428 kts 321°
2026-05-07 17:48 40.59916 20.18238 40074 ft 428 kts 321°
2026-05-07 17:48 40.65023 20.14198 40084 ft 427 kts 321°
2026-05-07 17:49 40.70118 20.10159 40072 ft 428 kts 321°
2026-05-07 17:49 40.75232 20.06093 40003 ft 431 kts 321°
2026-05-07 17:50 40.80363 20.02013 40066 ft 429 kts 321°
2026-05-07 17:50 40.85472 19.97946 40076 ft 428 kts 321°
2026-05-07 17:51 40.90573 19.93874 40067 ft 428 kts 321°
2026-05-07 17:51 40.95673 19.89794 40063 ft 428 kts 321°
2026-05-07 17:52 41.00766 19.85712 40067 ft 428 kts 321°
2026-05-07 17:52 41.05856 19.81627 40063 ft 428 kts 321°
2026-05-07 17:53 41.10956 19.77525 40069 ft 429 kts 320°
2026-05-07 17:53 41.16074 19.73398 40074 ft 430 kts 320°
2026-05-07 17:54 41.21197 19.69265 40078 ft 431 kts 320°
2026-05-07 17:54 41.26319 19.65124 40069 ft 431 kts 320°
2026-05-07 17:55 41.31445 19.60973 40069 ft 431 kts 320°
2026-05-07 17:55 41.36545 19.56831 40064 ft 433 kts 320°
2026-05-07 17:56 41.41724 19.52618 40062 ft 434 kts 320°
2026-05-07 17:56 41.46880 19.48417 40060 ft 434 kts 320°
2026-05-07 17:57 41.51165 19.44921 40064 ft 434 kts 320°
2026-05-07 17:57 41.57213 19.39973 40075 ft 437 kts 320°
2026-05-07 17:58 41.62405 19.35718 40063 ft 438 kts 320°
2026-05-07 17:58 41.67583 19.31469 40062 ft 438 kts 320°
2026-05-07 17:59 41.72776 19.27199 40061 ft 438 kts 320°
2026-05-07 17:59 41.77972 19.22917 40060 ft 438 kts 320°
2026-05-07 18:00 41.83168 19.18629 40066 ft 438 kts 320°
2026-05-07 18:00 41.88357 19.14335 40062 ft 438 kts 320°
2026-05-07 18:01 41.93551 19.10028 40062 ft 439 kts 320°
2026-05-07 18:01 41.98769 19.05691 40062 ft 441 kts 320°
2026-05-07 18:02 42.06616 18.99159 40061 ft 442 kts 319°
2026-05-07 18:03 42.11807 18.94828 40063 ft 442 kts 319°
2026-05-07 18:03 42.17039 18.90453 40063 ft 442 kts 319°
2026-05-07 18:04 42.22260 18.86078 40063 ft 442 kts 319°
2026-05-07 18:04 42.26607 18.82429 40086 ft 442 kts 320°
2026-05-07 18:05 42.31840 18.78026 40060 ft 444 kts 319°
2026-05-07 18:05 42.37099 18.73592 40074 ft 446 kts 320°
2026-05-07 18:06 42.42385 18.69129 40072 ft 448 kts 320°
2026-05-07 18:06 42.47686 18.64647 40079 ft 449 kts 320°
2026-05-07 18:07 42.52996 18.60146 40078 ft 452 kts 321°
2026-05-07 18:07 42.58345 18.55599 40075 ft 455 kts 321°
2026-05-07 18:08 42.63710 18.51036 40076 ft 455 kts 321°
2026-05-07 18:08 42.69080 18.46458 40077 ft 455 kts 321°
2026-05-07 18:09 42.74412 18.41900 40092 ft 457 kts 321°
2026-05-07 18:09 42.79831 18.37250 40082 ft 462 kts 321°
2026-05-07 18:10 42.85271 18.32580 40081 ft 463 kts 321°
2026-05-07 18:10 42.90719 18.27897 40087 ft 463 kts 321°
2026-05-07 18:11 42.96174 18.23199 40094 ft 464 kts 321°
2026-05-07 18:11 43.01640 18.18478 40089 ft 465 kts 321°
2026-05-07 18:12 43.07119 18.13735 40088 ft 465 kts 321°
2026-05-07 18:12 43.12590 18.08990 40085 ft 465 kts 321°
2026-05-07 18:13 43.18056 18.04238 40091 ft 466 kts 322°
2026-05-07 18:13 43.23515 17.99479 40076 ft 469 kts 321°
2026-05-07 18:14 43.29031 17.94663 40073 ft 470 kts 321°
2026-05-07 18:14 43.34550 17.89835 40074 ft 470 kts 321°
2026-05-07 18:15 43.40071 17.84995 40069 ft 470 kts 322°
2026-05-07 18:15 43.45614 17.80118 40082 ft 469 kts 321°
2026-05-07 18:16 43.51093 17.75294 40087 ft 470 kts 321°
2026-05-07 18:16 43.56634 17.70399 40077 ft 469 kts 321°
2026-05-07 18:17 43.62087 17.65561 40111 ft 470 kts 321°
2026-05-07 18:17 43.67618 17.60662 40089 ft 474 kts 321°
2026-05-07 18:18 43.73193 17.55685 40085 ft 473 kts 319°
2026-05-07 18:18 43.78041 17.49716 40087 ft 464 kts 309°
2026-05-07 18:19 43.82453 17.43202 40088 ft 464 kts 307°
2026-05-07 18:19 43.86795 17.36586 40092 ft 464 kts 307°
2026-05-07 18:20 43.91120 17.29984 40088 ft 466 kts 307°
2026-05-07 18:20 43.95492 17.23326 40088 ft 466 kts 307°
2026-05-07 18:21 43.99866 17.16666 40074 ft 467 kts 307°
2026-05-07 18:21 44.04236 17.09995 40092 ft 467 kts 307°
2026-05-07 18:22 44.08606 17.03310 40089 ft 467 kts 307°
2026-05-07 18:22 44.12968 16.96615 40077 ft 468 kts 307°
2026-05-07 18:23 44.17351 16.89873 40075 ft 469 kts 307°
2026-05-07 18:23 44.21711 16.83154 40069 ft 470 kts 307°
2026-05-07 18:24 44.26088 16.76392 40064 ft 470 kts 307°
2026-05-07 18:24 44.30469 16.69608 40065 ft 469 kts 307°
2026-05-07 18:25 44.34839 16.62820 40057 ft 470 kts 307°
2026-05-07 18:25 44.39211 16.56013 40057 ft 471 kts 307°
2026-05-07 18:26 44.43592 16.49177 40050 ft 472 kts 307°
2026-05-07 18:26 44.47975 16.42324 40043 ft 472 kts 307°
2026-05-07 18:27 44.52345 16.35472 40053 ft 472 kts 307°
2026-05-07 18:27 44.56696 16.28633 40045 ft 473 kts 307°
2026-05-07 18:28 44.61078 16.21729 40045 ft 473 kts 307°
2026-05-07 18:28 44.65463 16.14804 40038 ft 474 kts 307°
2026-05-07 18:29 44.69854 16.07853 40047 ft 475 kts 307°
2026-05-07 18:29 44.74238 16.00893 40032 ft 475 kts 307°
2026-05-07 18:30 44.78615 15.93929 40033 ft 475 kts 307°
2026-05-07 18:30 44.82961 15.86997 40028 ft 475 kts 307°
2026-05-07 18:31 44.87330 15.80011 40039 ft 475 kts 307°
2026-05-07 18:31 44.91708 15.72990 40029 ft 477 kts 307°
2026-05-07 18:32 44.96082 15.65960 40024 ft 478 kts 307°
2026-05-07 18:32 45.00469 15.58892 40018 ft 478 kts 307°
2026-05-07 18:33 45.04847 15.51822 40014 ft 478 kts 306°
2026-05-07 18:33 45.09223 15.44738 40014 ft 477 kts 306°
2026-05-07 18:34 45.13560 15.37699 40009 ft 477 kts 306°
2026-05-07 18:34 45.17927 15.30587 40008 ft 479 kts 306°
2026-05-07 18:35 45.22303 15.23447 40008 ft 479 kts 306°
2026-05-07 18:35 45.26671 15.16304 40006 ft 479 kts 306°
2026-05-07 18:36 45.31038 15.09140 40010 ft 479 kts 306°
2026-05-07 18:36 45.35396 15.01974 40017 ft 479 kts 306°
2026-05-07 18:37 45.39723 14.94841 40024 ft 479 kts 306°
2026-05-07 18:37 45.44084 14.87633 40028 ft 480 kts 306°
2026-05-07 18:38 45.48437 14.80425 40023 ft 480 kts 306°
2026-05-07 18:38 45.52916 14.73352 40031 ft 483 kts 312°
2026-05-07 18:39 45.57875 14.66822 40021 ft 485 kts 313°
2026-05-07 18:39 45.62902 14.60397 40057 ft 485 kts 313°
2026-05-07 18:40 45.67924 14.53996 40031 ft 487 kts 313°
2026-05-07 18:40 45.72980 14.47519 40025 ft 487 kts 313°
2026-05-07 18:41 45.78028 14.41024 40028 ft 487 kts 313°
2026-05-07 18:41 45.83078 14.34504 40022 ft 487 kts 313°
2026-05-07 18:42 45.88107 14.27994 40029 ft 487 kts 313°
2026-05-07 18:42 45.93136 14.21467 40021 ft 487 kts 313°
2026-05-07 18:43 45.98159 14.14932 40026 ft 487 kts 313°
2026-05-07 18:43 46.03179 14.08384 40026 ft 487 kts 313°
2026-05-07 18:44 46.08165 14.01864 40050 ft 487 kts 313°
2026-05-07 18:44 46.13174 13.95299 40030 ft 487 kts 313°
2026-05-07 18:45 46.18182 13.88718 40030 ft 487 kts 313°
2026-05-07 18:45 46.23191 13.82116 40031 ft 487 kts 313°
2026-05-07 18:46 46.28193 13.75506 40034 ft 487 kts 313°
2026-05-07 18:46 46.32384 13.69955 40040 ft 487 kts 313°
2026-05-07 18:47 46.37381 13.63319 40046 ft 488 kts 313°
2026-05-07 18:47 46.42350 13.56705 40038 ft 489 kts 313°
2026-05-07 18:48 46.47351 13.50031 40042 ft 489 kts 313°
2026-05-07 18:48 46.52351 13.43343 40042 ft 489 kts 313°
2026-05-07 18:49 46.57038 13.36132 40047 ft 482 kts 301°
2026-05-07 18:49 46.60796 13.28189 40040 ft 481 kts 300°
2026-05-07 18:50 46.64438 13.20024 40039 ft 481 kts 299°
2026-05-07 18:50 46.68055 13.11825 40037 ft 481 kts 299°
2026-05-07 18:51 46.71685 13.03618 40039 ft 481 kts 299°
2026-05-07 18:51 46.75306 12.95434 40045 ft 482 kts 299°
2026-05-07 18:52 46.78938 12.87205 40043 ft 482 kts 299°
2026-05-07 18:52 46.82563 12.78969 40042 ft 482 kts 299°
2026-05-07 18:53 46.86182 12.70723 40054 ft 482 kts 299°
2026-05-07 18:53 46.89790 12.62476 40045 ft 481 kts 300°
2026-05-07 18:54 46.93371 12.54264 40055 ft 483 kts 299°
2026-05-07 18:54 46.97000 12.45913 40048 ft 483 kts 299°
2026-05-07 18:55 47.00607 12.37591 40061 ft 485 kts 299°
2026-05-07 18:55 47.04217 12.29241 40037 ft 484 kts 299°
2026-05-07 18:56 47.07812 12.20902 40057 ft 484 kts 299°
2026-05-07 18:56 47.11394 12.12562 40056 ft 482 kts 299°
2026-05-07 18:57 47.14965 12.04223 40053 ft 483 kts 299°
2026-05-07 18:57 47.18533 11.95863 40059 ft 483 kts 299°
2026-05-07 18:58 47.22089 11.87476 40057 ft 482 kts 298°
2026-05-07 18:58 47.25247 11.78808 40051 ft 480 kts 294°
2026-05-07 18:59 47.28227 11.69988 40043 ft 480 kts 294°
2026-05-07 18:59 47.31249 11.61192 40049 ft 481 kts 294°
2026-05-07 19:00 47.34310 11.52434 40047 ft 481 kts 295°
2026-05-07 19:00 47.37386 11.43661 40048 ft 481 kts 295°
2026-05-07 19:01 47.40450 11.34890 40047 ft 481 kts 294°
2026-05-07 19:01 47.43508 11.26097 40052 ft 481 kts 295°
2026-05-07 19:02 47.46539 11.17352 40031 ft 481 kts 294°
2026-05-07 19:02 47.49597 11.08495 40041 ft 481 kts 294°
2026-05-07 19:03 47.52616 10.99724 40053 ft 481 kts 294°
2026-05-07 19:03 47.55644 10.90898 40040 ft 481 kts 294°
2026-05-07 19:04 47.58663 10.82068 40044 ft 481 kts 294°
2026-05-07 19:04 47.61677 10.73224 40045 ft 481 kts 294°
2026-05-07 19:05 47.64697 10.64330 40049 ft 480 kts 294°
2026-05-07 19:05 47.67686 10.55498 40051 ft 480 kts 294°
2026-05-07 19:06 47.70678 10.46627 40049 ft 481 kts 294°
2026-05-07 19:06 47.75914 10.33914 40056 ft 487 kts 310°
2026-05-07 19:07 47.80979 10.27085 40046 ft 491 kts 317°
2026-05-07 19:07 47.86252 10.20660 40048 ft 492 kts 318°
2026-05-07 19:08 47.91575 10.14236 40048 ft 492 kts 317°
2026-05-07 19:08 47.96872 10.07779 40047 ft 492 kts 317°
2026-05-07 19:09 48.02156 10.01285 40050 ft 492 kts 317°
2026-05-07 19:09 48.07438 9.94766 40047 ft 492 kts 317°
2026-05-07 19:10 48.12723 9.88228 40048 ft 492 kts 317°
2026-05-07 19:10 48.17995 9.81690 40048 ft 492 kts 317°
2026-05-07 19:11 48.23238 9.75170 40049 ft 492 kts 317°
2026-05-07 19:11 48.28510 9.68596 40051 ft 493 kts 317°
2026-05-07 19:12 48.33779 9.62009 40054 ft 493 kts 317°
2026-05-07 19:12 48.39022 9.55375 40056 ft 492 kts 316°
2026-05-07 19:13 48.44232 9.48670 40067 ft 492 kts 316°
2026-05-07 19:13 48.49434 9.41962 40063 ft 492 kts 316°
2026-05-07 19:14 48.54641 9.35248 40052 ft 492 kts 316°
2026-05-07 19:14 48.59883 9.28559 40044 ft 493 kts 320°
2026-05-07 19:15 48.65833 9.23297 40048 ft 499 kts 331°
2026-05-07 19:15 48.72148 9.18909 40057 ft 500 kts 333°
2026-05-07 19:16 48.78511 9.14642 40053 ft 500 kts 333°
2026-05-07 19:16 48.84882 9.10357 40060 ft 500 kts 333°
2026-05-07 19:17 48.91247 9.06041 40047 ft 500 kts 333°
2026-05-07 19:17 48.97569 9.01730 40057 ft 500 kts 333°
2026-05-07 19:18 49.03929 8.97379 40058 ft 501 kts 333°
2026-05-07 19:18 49.10285 8.93020 40058 ft 501 kts 333°
2026-05-07 19:19 49.16642 8.88649 40058 ft 501 kts 333°
2026-05-07 19:19 49.23178 8.84842 40061 ft 504 kts 339°
2026-05-07 19:20 49.29846 8.81526 40063 ft 504 kts 339°
2026-05-07 19:20 49.36544 8.78271 40067 ft 504 kts 340°
2026-05-07 19:21 49.43240 8.75010 40077 ft 505 kts 340°
2026-05-07 19:21 49.49890 8.71748 40071 ft 505 kts 340°
2026-05-07 19:22 49.56579 8.68452 40069 ft 505 kts 340°
2026-05-07 19:22 49.63267 8.65147 40064 ft 505 kts 339°
2026-05-07 19:23 49.66604 8.63490 39920 ft 504 kts 340°
2026-05-07 19:23 49.69862 8.61470 39697 ft 501 kts 331°
2026-05-07 19:23 49.72860 8.58766 39464 ft 498 kts 322°
2026-05-07 19:23 49.75554 8.55436 39247 ft 492 kts 316°
2026-05-07 19:24 49.77243 8.53129 39098 ft 485 kts 315°
2026-05-07 19:24 49.79712 8.49620 38865 ft 478 kts 314°
2026-05-07 19:24 49.82049 8.45988 38313 ft 475 kts 309°
2026-05-07 19:24 49.84616 8.40539 37422 ft 470 kts 298°
2026-05-07 19:25 49.86065 8.36017 36756 ft 467 kts 290°
2026-05-07 19:25 49.86839 8.32829 36338 ft 466 kts 289°
2026-05-07 19:25 49.87881 8.28149 35705 ft 466 kts 288°
2026-05-07 19:25 49.88898 8.23316 35110 ft 463 kts 287°
2026-05-07 19:26 49.89860 8.18629 34520 ft 460 kts 287°
2026-05-07 19:26 49.90823 8.13915 33907 ft 457 kts 287°
2026-05-07 19:26 49.91784 8.09221 33222 ft 454 kts 287°
2026-05-07 19:26 49.92741 8.04572 32555 ft 452 kts 287°
2026-05-07 19:27 49.93697 7.99940 31899 ft 449 kts 287°
2026-05-07 19:27 49.94650 7.95329 31254 ft 447 kts 287°
2026-05-07 19:27 49.95578 7.90735 30622 ft 444 kts 287°
2026-05-07 19:27 49.96452 7.86143 29994 ft 442 kts 286°
2026-05-07 19:28 49.97302 7.81554 29266 ft 440 kts 285°
2026-05-07 19:28 49.98140 7.76999 28570 ft 437 kts 285°
2026-05-07 19:28 49.98974 7.72477 27884 ft 435 kts 285°
2026-05-07 19:28 49.99844 7.67989 27214 ft 432 kts 287°
2026-05-07 19:29 50.00753 7.63548 26562 ft 430 kts 287°
2026-05-07 19:29 50.01666 7.59181 25930 ft 427 kts 287°
2026-05-07 19:29 50.02596 7.54745 25295 ft 425 kts 287°
2026-05-07 19:29 50.03493 7.50441 24693 ft 422 kts 287°
2026-05-07 19:30 50.04386 7.46116 24258 ft 415 kts 287°
2026-05-07 19:30 50.05252 7.41897 24084 ft 401 kts 286°
2026-05-07 19:30 50.06080 7.37848 24067 ft 386 kts 286°
2026-05-07 19:30 50.06882 7.33869 24072 ft 385 kts 286°
2026-05-07 19:31 50.07547 7.29841 24077 ft 385 kts 280°
2026-05-07 19:31 50.07926 7.25715 24074 ft 384 kts 275°
2026-05-07 19:31 50.08167 7.21635 23973 ft 384 kts 274°
2026-05-07 19:31 50.08529 7.17501 23530 ft 385 kts 281°
2026-05-07 19:32 50.09379 7.13541 22846 ft 386 kts 294°
2026-05-07 19:32 50.10680 7.09888 22275 ft 384 kts 300°
2026-05-07 19:32 50.12074 7.06400 22089 ft 377 kts 301°
2026-05-07 19:32 50.13474 7.02938 22073 ft 378 kts 301°
2026-05-07 19:33 50.14879 6.99464 22073 ft 378 kts 301°
2026-05-07 19:33 50.16286 6.95988 22073 ft 378 kts 301°
2026-05-07 19:33 50.17687 6.92521 22074 ft 378 kts 301°
2026-05-07 19:33 50.19090 6.89051 22082 ft 378 kts 301°
2026-05-07 19:34 50.20491 6.85576 22074 ft 378 kts 300°
2026-05-07 19:34 50.21887 6.82107 22075 ft 378 kts 301°
2026-05-07 19:34 50.23284 6.78635 22071 ft 378 kts 301°
2026-05-07 19:34 50.24684 6.75157 22075 ft 378 kts 301°
2026-05-07 19:35 50.26081 6.71678 22072 ft 378 kts 301°
2026-05-07 19:35 50.27456 6.68251 22069 ft 378 kts 301°
2026-05-07 19:35 50.28852 6.64764 22027 ft 378 kts 301°
2026-05-07 19:35 50.30242 6.61288 21786 ft 376 kts 301°
2026-05-07 19:36 50.31630 6.57815 21508 ft 375 kts 301°
2026-05-07 19:36 50.33011 6.54352 21253 ft 374 kts 301°
2026-05-07 19:36 50.34387 6.50897 20996 ft 373 kts 301°
2026-05-07 19:36 50.35758 6.47450 20728 ft 372 kts 301°
2026-05-07 19:37 50.37121 6.44020 20470 ft 370 kts 301°
2026-05-07 19:37 50.38480 6.40592 20232 ft 369 kts 301°
2026-05-07 19:37 50.39831 6.37184 19992 ft 368 kts 301°
2026-05-07 19:37 50.41177 6.33783 19733 ft 366 kts 301°
2026-05-07 19:38 50.42517 6.30392 19493 ft 365 kts 301°
2026-05-07 19:38 50.43853 6.27005 19251 ft 364 kts 301°
2026-05-07 19:38 50.45176 6.23650 19008 ft 363 kts 301°
2026-05-07 19:38 50.46502 6.20282 18768 ft 362 kts 301°
2026-05-07 19:39 50.47793 6.16996 18536 ft 360 kts 301°
2026-05-07 19:39 50.49108 6.13648 18292 ft 359 kts 301°
2026-05-07 19:39 50.50420 6.10303 17914 ft 359 kts 300°
2026-05-07 19:39 50.51723 6.06975 17467 ft 357 kts 300°
2026-05-07 19:40 50.53020 6.03659 17017 ft 355 kts 300°
2026-05-07 19:40 50.54304 6.00364 16570 ft 352 kts 298°
2026-05-07 19:40 50.55556 5.97065 16123 ft 350 kts 298°
2026-05-07 19:40 50.56806 5.93786 15691 ft 348 kts 298°
2026-05-07 19:41 50.58053 5.90530 15277 ft 347 kts 300°
2026-05-07 19:41 50.59327 5.87302 14856 ft 345 kts 300°
2026-05-07 19:41 50.60594 5.84109 14435 ft 343 kts 300°
2026-05-07 19:41 50.61832 5.80961 14031 ft 341 kts 300°
2026-05-07 19:42 50.63070 5.77789 13594 ft 339 kts 300°
2026-05-07 19:42 50.64318 5.74577 13139 ft 338 kts 300°
2026-05-07 19:42 50.65519 5.71472 12698 ft 336 kts 300°
2026-05-07 19:42 50.66731 5.68334 12256 ft 334 kts 300°
2026-05-07 19:43 50.67933 5.65219 11825 ft 332 kts 300°
2026-05-07 19:43 50.69129 5.62111 11391 ft 330 kts 300°
2026-05-07 19:43 50.70314 5.59028 10967 ft 328 kts 300°
2026-05-07 19:43 50.71495 5.55954 10535 ft 327 kts 300°
2026-05-07 19:44 50.72658 5.52921 10132 ft 325 kts 300°
2026-05-07 19:44 50.73825 5.49876 9703 ft 323 kts 300°
2026-05-07 19:44 50.74985 5.46844 9262 ft 321 kts 300°
2026-05-07 19:44 50.76134 5.43838 8801 ft 319 kts 300°
2026-05-07 19:45 50.77273 5.40854 8356 ft 317 kts 300°
2026-05-07 19:45 50.78405 5.37885 7918 ft 315 kts 300°
2026-05-07 19:45 50.79531 5.34929 7486 ft 313 kts 301°
2026-05-07 19:45 50.80648 5.31992 7064 ft 311 kts 301°
2026-05-07 19:46 50.81758 5.29073 6625 ft 309 kts 301°
2026-05-07 19:46 50.82860 5.26169 6236 ft 307 kts 301°
2026-05-07 19:46 50.83937 5.23326 6084 ft 306 kts 301°
2026-05-07 19:46 50.85052 5.20384 6076 ft 307 kts 301°
2026-05-07 19:47 50.86147 5.17488 6080 ft 306 kts 301°
2026-05-07 19:47 50.87133 5.14539 6081 ft 307 kts 294°
2026-05-07 19:47 50.87968 5.11443 6080 ft 307 kts 292°
2026-05-07 19:47 50.88775 5.08310 6001 ft 307 kts 292°
2026-05-07 19:48 50.89569 5.05176 5496 ft 306 kts 291°
2026-05-07 19:48 50.90352 5.02055 5088 ft 304 kts 291°
2026-05-07 19:48 50.91125 4.98953 4786 ft 298 kts 291°
2026-05-07 19:48 50.91868 4.95961 4563 ft 285 kts 291°
2026-05-07 19:49 50.92578 4.93098 4351 ft 273 kts 291°
2026-05-07 19:49 50.93255 4.90358 4177 ft 261 kts 291°
2026-05-07 19:49 50.93903 4.87729 4054 ft 248 kts 291°
2026-05-07 19:49 50.94517 4.85241 3935 ft 236 kts 291°
2026-05-07 19:50 50.95099 4.82875 3854 ft 224 kts 291°
2026-05-07 19:50 50.95648 4.80622 3723 ft 214 kts 291°
2026-05-07 19:50 50.95855 4.78359 3543 ft 206 kts 261°
2026-05-07 19:50 50.95474 4.76244 3337 ft 197 kts 249°
2026-05-07 19:51 50.94987 4.74251 3048 ft 193 kts 248°
2026-05-07 19:51 50.94500 4.72317 2832 ft 186 kts 249°
2026-05-07 19:51 50.94071 4.70416 2588 ft 181 kts 250°
2026-05-07 19:51 50.93643 4.68569 2364 ft 176 kts 249°
2026-05-07 19:52 50.93224 4.66772 2115 ft 172 kts 249°
2026-05-07 19:52 50.92817 4.65015 1883 ft 167 kts 249°
2026-05-07 19:52 50.92432 4.63340 1654 ft 156 kts 249°
2026-05-07 19:52 50.92074 4.61796 1447 ft 143 kts 248°
2026-05-07 19:53 50.91742 4.60352 1275 ft 138 kts 249°
2026-05-07 19:53 50.91603 4.59747 1181 ft 137 kts 250°
2026-05-07 19:53 50.91276 4.58328 1005 ft 136 kts 250°
2026-05-07 19:53 50.90951 4.56913 790 ft 136 kts 250°
2026-05-07 19:54 50.90626 4.55507 580 ft 135 kts 251°
2026-05-07 19:54 50.90304 4.54116 402 ft 134 kts 250°
2026-05-07 19:54 50.89984 4.52733 262 ft 134 kts 251°
2026-05-07 19:54 50.89664 4.51347 181 ft 131 kts 251°
2026-05-07 19:55 50.89423 4.50279 182 ft 84 kts 250°
2026-05-07 19:55 50.89281 4.49677 183 ft 39 kts 250°
2026-05-07 19:55 50.89231 4.49367 182 ft 13 kts 277°
2026-05-07 19:55 50.89278 4.49218 178 ft 19 kts 310°
2026-05-07 19:56 50.89301 4.49175 175 ft 0 kts 309°
2026-05-07 19:56 50.89323 4.49133 174 ft 9 kts 313°
2026-05-07 19:57 50.89397 4.49111 171 ft 13 kts 17°
2026-05-07 19:57 50.89461 4.49148 168 ft 0 kts 16°
2026-05-07 19:57 50.89464 4.49150 168 ft 3 kts 15°
2026-05-07 19:57 50.89526 4.49175 165 ft 0 kts 14°
2026-05-07 19:58 50.89529 4.49176 165 ft 2 kts 14°
2026-05-07 19:58 50.89564 4.49189 163 ft 3 kts
2026-05-07 19:58 50.89617 4.49153 160 ft 13 kts 339°
2026-05-07 19:59 50.89729 4.49178 153 ft 20 kts 15°
2026-05-07 19:59 50.89777 4.49198 151 ft 2 kts 15°
2026-05-07 19:59 50.89789 4.49203 150 ft 2 kts 15°
2026-05-07 19:59 50.89905 4.49250 144 ft 25 kts 15°
2026-05-07 20:00 50.90093 4.49325 137 ft 29 kts 14°
2026-05-07 20:00 50.90252 4.49390 127 ft 0 kts 14°
2026-05-07 20:02 50.90253 4.49390 127 ft 1 kts 14°
2026-05-07 20:02 50.90280 4.49401 126 ft 8 kts 15°
2026-05-07 20:02 50.90345 4.49389 125 ft 9 kts 318°
2026-05-07 20:02 50.90324 4.49307 125 ft 22 kts 238°
2026-05-07 20:03 50.90251 4.49065 131 ft 26 kts 246°
2026-05-07 20:03 50.90188 4.48847 125 ft 17 kts 244°
2026-05-07 20:03 50.90157 4.48740 132 ft 0 kts 245°
2026-05-07 20:03 50.90156 4.48739 132 ft 2 kts 245°
2026-05-07 20:04 50.90137 4.48668 127 ft 9 kts 247°
2026-05-07 20:04 50.90106 4.48602 129 ft 0 kts 200°